This is the latest recevied weather packets stored in our database for station/object IU5JAE-13. If no packets are shown the sender has not sent any weather packets the latest 1 day(s).
| Time | Temp. | Humidity | Pressure | Rain* | Wind** | Luminosity | Snow |
|---|---|---|---|---|---|---|---|
| 1777964735 | 11.67° C | 98% | 1011.9 hPa | 0.51 mm | 0.89 m/s, 186° | 17 W/m² | - |
| 1777964132 | 11.67° C | 98% | 1012 hPa | 0.76 mm | 0.89 m/s, 213° | 16 W/m² | - |
| 1777963530 | 11.11° C | 98% | 1012 hPa | 1.27 mm | 0 m/s | 16 W/m² | - |
| 1777962927 | 11.11° C | 98% | 1012.5 hPa | 1.78 mm | 0.45 m/s, 90° | 16 W/m² | - |
| 1777962325 | 11.11° C | 98% | 1012.6 hPa | 2.03 mm | 0.89 m/s, 77° | 21 W/m² | - |
| 1777961723 | 11.11° C | 98% | 1012.8 hPa | 3.3 mm | 0 m/s | 15 W/m² | - |
| 1777961120 | 11.11° C | 98% | 1012.6 hPa | 5.33 mm | 0.89 m/s, 76° | 18 W/m² | - |
| 1777960518 | 11.11° C | 98% | 1012.6 hPa | 9.4 mm | 0.45 m/s, 76° | 7 W/m² | - |
| 1777959917 | 11.11° C | 98% | 1012.6 hPa | 12.45 mm | 0.45 m/s, 43° | 5 W/m² | - |
| 1777959333 | 11.11° C | 97% | 1012.6 hPa | 16.76 mm | 0.45 m/s, 155° | 5 W/m² | - |
| 1777958731 | 11.11° C | 97% | 1012.7 hPa | 19.56 mm | 0 m/s | 5 W/m² | - |
| 1777958128 | 11.11° C | 97% | 1013 hPa | 19.56 mm | 0.89 m/s, 80° | 4 W/m² | - |
| 1777957526 | 11.11° C | 97% | 1013.3 hPa | 17.78 mm | 0.45 m/s, 78° | 2 W/m² | - |
| 1777956923 | 11.11° C | 97% | 1013 hPa | 13.72 mm | 0.45 m/s, 297° | 1 W/m² | - |
| 1777956321 | 11.11° C | 97% | 1012.9 hPa | 9.91 mm | 0.89 m/s, 269° | 0 W/m² | - |
| 1777955718 | 11.11° C | 96% | 1012.7 hPa | 5.33 mm | 0 m/s | 1 W/m² | - |
| 1777955116 | 11.11° C | 96% | 1012.8 hPa | 2.29 mm | 0 m/s | 1 W/m² | - |
| 1777954534 | 11.11° C | 96% | 1012.8 hPa | 1.27 mm | 0 m/s | 1 W/m² | - |
| 1777953931 | 11.11° C | 96% | 1012.8 hPa | 1.02 mm | 0 m/s | 0 W/m² | - |
| 1777953329 | 11.11° C | 96% | 1012.9 hPa | 1.27 mm | 0 m/s | 0 W/m² | - |
| 1777952726 | 11.11° C | 96% | 1013 hPa | 1.78 mm | 0 m/s | 0 W/m² | - |
| 1777952124 | 11.11° C | 96% | 1013.1 hPa | 2.03 mm | 0 m/s | 0 W/m² | - |
| 1777951522 | 11.11° C | 95% | 1013.3 hPa | 3.81 mm | 0.45 m/s, 244° | 0 W/m² | - |
| 1777950920 | 11.11° C | 95% | 1013.4 hPa | 4.83 mm | 0 m/s | 0 W/m² | - |
| 1777950317 | 11.11° C | 95% | 1013.5 hPa | 5.33 mm | 0 m/s | 0 W/m² | - |
* Rain latest hour (hover to see other rain measurements)
** Current wind speed in m/s (hover to see current wind gust speed)